星链-4124 (STARLINK-4124 )

导读 | 豆包AI

STARLINK-4124是美国太空探索技术公司星链星座的一员,于2022年7月24日发射入轨,属于星链互联网卫星组网任务的组成部分。星链系统旨在为全球提供覆盖偏远区域的低时延宽带互联网服务,该卫星加入星座后,进一步拓展了星链低轨卫星网络的服务覆盖范围与通信容量。

Basic Information
目录编号:
53245
目录名称:
STARLINK-4124
国际标识:
2022-086D
轨道中心:
EARTH
卫星名称:
星链-4124
卫星全名:
星链-4124 (STARLINK-4124 )
卫星状态:
已陨落 最后检测时间 2024-05-26
发射日期:
2022-07-24 UTC
国别 :
美国 (US)
星等 :
--
Orbit Information
数据来源 国际轨道数据
星历时间: 2024-05-26T08:54:18+0800
轨道信息已过期703天
半长轴: 6572.967km
偏心率: 0.0006615
轨道倾角: 53.205°
近地点辐角 343.279°
升交点赤经 223.051°
平近点角 160.365°
近地点: 190.483km
远地点: 199.181km
周期: 88.390分钟
每日圈数: 16.291485
Detailed Information
固有亮度:
5
最大亮度:
2.5
卫星平台:
Starlink v1.5
覆盖范围:
全球
运营商:
太空探索技术公司
运营商所在国:
美国
制造商(研发单位):
太空探索技术公司
制造商所在国:
美国
使用方式:
暂无
Satellite Introduction
星链(Starlink)计划是由太空探索技术公司(SpaceX)提出的一个巨型低轨卫星互联网星座项目,计划在2019年至2024年间在太空搭建由约1.2万颗卫星组成的“星链”网络,其中1584颗将部署在地球上空550千米处的近地轨道,并从2020年开始工作。该卫星已陨落。